Russell, KS

12:55 PM CST on January 22, 2018 (GMT -0600)
Russell Municipal

Weather History for KRSL - April, 2013

Change the Weather History Date:

Friday, April 5, 2013

  Actual Average Record
Temperature  
Mean Temperature 54 °F -  
Max Temperature 71 °F 64 °F 93 °F (1967)
Min Temperature 37 °F 35 °F 18 °F (1968)
Degree Days  
Heating Degree Days 11    
Growing Degree Days 4 (Base 50)    
Moisture  
Dew Point 38 °F    
Average Humidity 59    
Maximum Humidity 89    
Minimum Humidity 27    
Precipitation  
Precipitation 0.00 in - - ()
Sea Level Pressure  
Sea Level Pressure 29.92 in    
Wind  
Wind Speed 17 mph (South)    
Max Wind Speed 32 mph    
Max Gust Speed 43 mph    
Visibility 10 miles    
Events      
Averages and records for this station are not official NWS values.
T = Trace of Precipitation, MM = Missing Value Source: NWS Daily Summary

Daily Weather History Graph

Daily Weather History Graph

Search for Another Location

Airport or City:

Trip Planner

Search our weather history database for the weather conditions in past years. The results will help you decide how hot, cold, wet, or windy it might be!

Date:

Astronomy

Apr. 05, 2013 Rise Set
Actual Time 7:13 AM CDT 8:02 PM CDT
Civil Twilight 6:46 AM CDT 8:30 PM CDT
Nautical Twilight 6:14 AM CDT 9:02 PM CDT
Astronomical Twilight 5:41 AM CDT 9:35 PM CDT
Moon 4:18 AM CDT (4/5) 3:31 PM CDT (4/5)
Length of Visible Light 13h 43m
Length of Day
12h 49m
Waning Crescent, 23% of the Moon is Illuminated
Apr 5
Waning Crescent
Apr 10
New
Apr 18
First Quarter
Apr 25
Full
May 2
Last Quarter

Hourly Weather History & Observations

Time (CDT) Temp. Windchill Dew Point Humidity Pressure Visibility Wind Dir Wind Speed Gust Speed Precip Events Conditions
12:53 AM 42.1 °F 36.1 °F 34.0 °F 73% 30.13 in 10.0 mi SSW 10.4 mph - N/A   Clear
1:53 AM 41.0 °F 34.7 °F 35.1 °F 79% 30.11 in 10.0 mi SSW 10.4 mph - N/A   Clear
2:53 AM 39.0 °F 32.8 °F 34.0 °F 82% 30.11 in 10.0 mi SSW 9.2 mph - N/A   Clear
3:53 AM 37.9 °F 30.9 °F 34.0 °F 86% 30.11 in 10.0 mi SSW 10.4 mph - N/A   Clear
4:53 AM 37.9 °F 31.5 °F 34.0 °F 86% 30.09 in 10.0 mi SSW 9.2 mph - N/A   Clear
5:53 AM 37.0 °F 30.4 °F 34.0 °F 89% 30.09 in 10.0 mi South 9.2 mph - N/A   Clear
6:53 AM 37.9 °F 30.9 °F 35.1 °F 89% 30.07 in 10.0 mi South 10.4 mph - N/A   Clear
7:53 AM 39.0 °F 32.8 °F 36.0 °F 89% 30.07 in 10.0 mi South 9.2 mph - N/A   Clear
8:53 AM 46.9 °F - 39.0 °F 74% 30.07 in 10.0 mi South 16.1 mph - N/A   Clear
9:53 AM 54.0 °F - 37.9 °F 55% 30.05 in 10.0 mi South 23.0 mph 28.8 mph N/A   Clear
10:53 AM 60.1 °F - 39.0 °F 46% 30.03 in 10.0 mi South 23.0 mph - N/A   Clear
11:53 AM 64.9 °F - 37.9 °F 37% 30.00 in 10.0 mi South 21.9 mph 31.1 mph N/A   Clear
12:53 PM 69.1 °F - 35.1 °F 29% 29.95 in 10.0 mi South 27.6 mph 34.5 mph N/A   Clear
1:53 PM 69.1 °F - 34.0 °F 27% 29.90 in 10.0 mi South 26.5 mph 34.5 mph N/A   Clear
2:53 PM 70.0 °F - 36.0 °F 29% 29.85 in 10.0 mi SSE 31.1 mph 36.8 mph N/A   Clear
3:53 PM 71.1 °F - 36.0 °F 28% 29.81 in 10.0 mi South 32.2 mph 40.3 mph N/A   Clear
4:53 PM 69.1 °F - 39.9 °F 35% 29.77 in 10.0 mi South 29.9 mph 42.6 mph N/A   Clear
5:53 PM 66.9 °F - 41.0 °F 39% 29.75 in 10.0 mi South 29.9 mph 38.0 mph N/A   Clear
6:53 PM 64.9 °F - 43.0 °F 45% 29.73 in 10.0 mi South 28.8 mph 38.0 mph N/A   Clear
7:53 PM 62.1 °F - 42.1 °F 48% 29.71 in 10.0 mi South 31.1 mph 39.1 mph N/A   Clear
8:53 PM 59.0 °F - 44.1 °F 58% 29.69 in 10.0 mi South 27.6 mph 36.8 mph N/A   Clear
9:53 PM 57.0 °F - 44.1 °F 62% 29.69 in 10.0 mi South 29.9 mph 38.0 mph N/A   Clear
10:53 PM 55.9 °F - 44.1 °F 64% 29.68 in 10.0 mi South 26.5 mph 36.8 mph N/A   Clear
11:53 PM 55.9 °F - 44.1 °F 64% 29.66 in 10.0 mi South 27.6 mph 34.5 mph N/A   Clear